EW3163 Weather Reports


Display with metric or nautical units.
time (UTC)temp
F
wind
direction
speed
MPH
gust
MPH
rain 1hr
in
rain 24hr
in
rain mn
in
humidity
%
barometer
mb
20260505153004 47 310 6.0 12.0 0.00 0.00 0.00 81 1015.8
20260505151502 47 301 4.0 15.0 0.00 0.00 0.00 81 1015.7
20260505140117 49 7 1.0 9.0 0.00 0.00 0.00 82 1015.3
20260505124553 50 22 2.0 12.0 0.00 0.00 0.00 78 1015.0
20260505123107 49 8 1.0 10.0 0.00 0.00 0.00 81 1015.0
20260505121547 49 32 1.0 8.0 0.00 0.00 0.00 81 1014.9
20260505120051 48 351 2.0 13.0 0.00 0.00 0.00 82 1014.9
20260505114554 49 328 1.0 11.0 0.00 0.00 0.00 82 1014.6
20260505113050 49 6 2.0 10.0 0.00 0.00 0.00 85 1014.6
20260505111543 48 8 3.0 12.0 0.00 0.00 0.00 89 1014.7
20260505101545 48 321 0.0 3.0 0.00 0.00 0.00 92 1014.6
20260505100038 49 307 0.0 5.0 0.00 0.00 0.00 88 1014.4
20260505094536 49 322 0.0 1.0 0.00 0.00 0.00 83 1014.3
20260505093043 50 13 0.0 4.0 0.00 0.00 0.00 82 1014.3
20260505091542 50 12 0.0 4.0 0.00 0.00 0.00 81 1014.2
20260505090046 50 319 0.0 1.0 0.00 0.00 0.00 81 1014.2
20260505084534 50 321 0.0 1.0 0.00 0.00 0.00 80 1014.1
20260505083033 50 356 0.0 3.0 0.00 0.00 0.00 81 1014.2
20260505081537 50 299 0.0 0.0 0.00 0.00 0.00 83 1014.1
20260505080045 49 327 0.0 1.0 0.00 0.00 0.00 83 1014.1
20260505074525 49 334 0.0 1.0 0.00 0.00 0.00 83 1014.0
20260505073024 49 317 0.0 1.0 0.00 0.00 0.00 85 1014.0
20260505071522 48 316 0.0 0.0 0.00 0.00 0.00 88 1014.1
20260505070022 47 356 0.0 0.0 0.00 0.00 0.00 89 1014.1
20260505064516 46 309 0.0 0.0 0.00 0.00 0.00 90 1013.9
20260505063015 45 292 0.0 0.0 0.00 0.00 0.00 91 1013.9
20260505061518 44 143 0.0 0.0 0.00 0.00 0.00 94 1013.9
20260505060020 43 139 0.0 0.0 0.00 0.00 0.00 94 1013.9
20260505054517 41 139 0.0 0.0 0.00 0.00 0.00 94 1013.8
20260505053017 40 139 0.0 0.0 0.00 0.00 0.00 94 1013.8
20260505051512 39 349 0.0 0.0 0.00 0.00 0.00 94 1013.8
20260505041516 38 345 0.0 0.0 0.00 0.00 0.00 93 1013.6
20260505040009 38 345 0.0 0.0 0.00 0.00 0.00 93 1013.6
20260505034508 39 345 0.0 0.0 0.00 0.00 0.00 93 1013.6
20260505033003 39 345 0.0 0.0 0.00 0.00 0.00 93 1013.6
20260505031502 40 345 0.0 0.0 0.00 0.00 0.00 93 1013.7
20260505030002 40 344 0.0 1.0 0.00 0.00 0.00 93 1013.6
20260505024559 39 98 0.0 0.0 0.00 0.00 0.00 92 1013.6
20260505023056 40 98 0.0 0.0 0.00 0.00 0.00 92 1013.7
20260505021554 41 98 0.0 0.0 0.00 0.00 0.00 92 1013.8
20260505020052 41 98 0.0 0.0 0.00 0.00 0.00 92 1013.8
20260505014604 41 98 0.0 0.0 0.00 0.00 0.00 92 1014.0
20260505013050 41 98 0.0 0.0 0.00 0.00 0.00 91 1014.1
20260505011547 41 98 0.0 0.0 0.00 0.00 0.00 91 1014.1
20260505010045 42 98 0.0 0.0 0.00 0.00 0.00 91 1014.1
20260505004546 42 98 0.0 0.0 0.00 0.00 0.00 90 1014.1
20260505003043 42 98 0.0 0.0 0.00 0.00 0.00 90 1014.1
20260505001549 42 98 0.0 0.0 0.00 0.00 0.00 89 1014.2
20260505000049 43 98 0.0 0.0 0.00 0.00 0.00 88 1014.2
20260504234543 44 98 0.0 0.0 0.00 0.00 0.00 87 1014.3
20260504233033 45 98 0.0 0.0 0.00 0.00 0.00 86 1014.3
20260504231529 45 98 0.0 0.0 0.00 0.00 0.00 85 1014.3
20260504230026 46 12 0.0 0.0 0.00 0.00 0.00 84 1014.2
20260504224528 47 32 0.0 0.0 0.00 0.00 0.00 84 1014.2
20260504223025 47 63 0.0 0.0 0.00 0.00 0.00 85 1014.2
20260504221529 47 357 0.0 0.0 0.00 0.00 0.00 84 1014.3
20260504220024 48 358 0.0 0.0 0.00 0.00 0.00 80 1014.4
20260504214523 49 357 0.0 0.0 0.00 0.00 0.00 79 1014.3
20260504213043 50 326 0.0 0.0 0.00 0.00 0.00 79 1014.2
20260504211522 51 332 0.0 0.0 0.00 0.00 0.00 79 1014.3
20260504210023 51 14 0.0 0.0 0.00 0.00 0.00 79 1014.4
20260504204522 52 89 0.0 0.0 0.00 0.00 0.00 79 1014.4
20260504203020 53 353 0.0 0.0 0.00 0.00 0.00 77 1014.2
20260504201525 54 353 0.0 0.0 0.00 0.00 0.00 76 1014.2
20260504200020 55 353 0.0 0.0 0.00 0.00 0.00 73 1014.1
20260504194520 56 355 0.0 0.0 0.00 0.00 0.00 72 1013.9
20260504193018 57 356 0.0 0.0 0.00 0.00 0.00 70 1013.8
20260504191519 57 313 0.0 0.0 0.00 0.00 0.00 69 1013.6
20260504190016 58 334 0.0 0.0 0.00 0.00 0.00 68 1013.6
20260504184516 58 306 0.0 1.0 0.00 0.00 0.00 66 1013.5
20260504183021 58 309 0.0 0.0 0.00 0.00 0.00 71 1013.4
20260504181514 58 191 0.0 0.0 0.00 0.00 0.00 80 1013.3
20260504180013 57 146 0.0 0.0 0.00 0.00 0.00 80 1013.3
20260504174512 57 158 0.0 0.0 0.00 0.00 0.00 80 1013.4
20260504173022 58 186 0.0 0.0 0.00 0.00 0.00 79 1013.5
20260504171517 58 158 0.0 0.0 0.00 0.00 0.00 79 1013.5